Location: Melbourne
(37.8170°S, 144.9670°E)
Time: 16:59:46
(UTC+10:00)

ISS - All Passes

Search period start: 26 June 2017 00:00
Search period end: 06 July 2017 00:00
Orbit: 401 x 408 km, 51.6° (Epoch: 26 June)

Date Brightness Start Highest point End Pass type
(mag) Time Alt. Az. Time Alt. Az. Time Alt. Az.
26 Jun - 01:19:52 10° S 01:21:27 13° SSE 01:23:00 10° SE night (unlit)
26 Jun - 02:55:14 10° SW 02:58:31 58° SE 03:01:46 10° ENE night (unlit)
26 Jun - 04:33:07 10° W 04:34:38 13° NW 04:36:09 10° NNW night (unlit)
26 Jun - 19:33:42 10° NNW 19:36:55 47° NE 19:40:09 10° ESE visible
26 Jun - 21:10:56 10° W 21:13:34 21° SSW 21:16:13 10° SSE night (unlit)
27 Jun - 02:03:14 10° SSW 02:06:16 31° SSE 02:09:16 10° E night (unlit)
27 Jun - 03:39:53 10° WSW 03:42:40 25° NW 03:45:25 10° N night (unlit)
27 Jun - 18:42:09 10° N 18:44:52 23° NE 18:47:35 10° ESE visible
27 Jun - 20:18:09 10° W 20:21:14 33° SSW 20:24:19 10° SE visible
27 Jun - 21:58:14 10° SSW 21:58:32 10° SSW 21:58:50 10° S night (unlit)
28 Jun - 01:11:21 10° SSW 01:13:54 20° SSE 01:16:28 10° ESE night (unlit)
28 Jun - 02:47:21 10° WSW 02:50:36 52° NW 02:53:48 10° NNE night (unlit)
28 Jun - 17:51:35 10° NNE 17:52:52 12° NE 17:54:11 10° ENE visible
28 Jun - 19:25:40 10° WNW 19:28:58 63° SW 19:32:17 10° SE visible
28 Jun - 21:04:19 10° SW 21:06:01 13° SSW 21:07:42 10° S night (unlit)
29 Jun - 00:19:35 10° SSW 00:21:28 14° SSE 00:23:21 10° SE night (unlit)
29 Jun - 01:55:07 10° SW 01:58:26 75° SE 02:01:44 10° NE night (unlit)
29 Jun - 18:33:29 10° NW 18:36:46 63° NE 18:40:05 10° SE visible
29 Jun - 20:11:06 10° WSW 20:13:32 18° SSW 20:15:58 10° SSE visible
29 Jun - 23:28:07 10° S 23:28:57 11° SSE 23:29:46 10° SSE night (unlit)
30 Jun - 01:03:01 10° SW 01:06:11 38° SE 01:09:19 10° ENE night (unlit)
30 Jun - 02:40:00 10° W 02:42:28 19° NW 02:44:55 10° N night (unlit)
30 Jun - 17:41:43 10° NNW 17:44:39 30° NE 17:47:37 10° ESE visible
30 Jun - 19:18:11 10° W 19:21:07 28° SSW 19:24:05 10° SSE visible
01 Jul - 00:11:04 10° SSW 00:13:50 23° SSE 00:16:34 10° E night (unlit)
01 Jul - 01:47:17 10° WSW 01:50:24 39° NW 01:53:30 10° NNE night (unlit)
01 Jul - 16:50:35 10° NNE 16:52:36 15° NE 16:54:37 10° E daylight
01 Jul - 18:25:32 10° WNW 18:28:47 49° SW 18:32:03 10° SE visible
01 Jul - 20:04:34 10° SW 20:05:55 12° SSW 20:07:16 10° S visible
01 Jul - 23:19:12 10° SSW 23:21:22 16° SSE 23:23:31 10° ESE night (unlit)
02 Jul - 00:54:54 10° SW 00:58:14 85° NW 01:01:32 10° NE night (unlit)
02 Jul - 17:33:12 10° NW 17:36:31 83° NE 17:39:52 10° SE visible
02 Jul - 19:11:11 10° WSW 19:13:23 16° SSW 19:15:36 10° SSE visible
02 Jul - 22:27:32 10° S 22:28:50 12° SSE 22:30:07 10° SE night (unlit)
03 Jul - 00:02:44 10° SW 00:05:58 48° SE 00:09:11 10° ENE night (unlit)
03 Jul - 01:40:07 10° W 01:42:09 15° NW 01:44:11 10° NNW night (unlit)
03 Jul - 16:41:13 10° NNW 16:44:20 38° NE 16:47:29 10° ESE daylight
03 Jul - 18:18:07 10° W 18:20:54 24° SSW 18:23:42 10° SSE visible
03 Jul - 23:10:41 10° SSW 23:13:37 27° SSE 23:16:30 10° E night (unlit)
04 Jul - 00:47:07 10° WSW 00:50:05 30° NW 00:53:01 10° NNE night (unlit)
04 Jul - 15:49:46 10° N 15:52:13 19° NE 15:54:42 10° E daylight
04 Jul - 17:25:21 10° WNW 17:28:30 39° SW 17:31:42 10° SE daylight
04 Jul - 19:04:47 10° SSW 19:05:44 11° SSW 19:06:40 10° S visible
04 Jul - 22:18:44 10° SSW 22:21:09 18° SSE 22:23:32 10° ESE night (unlit)
04 Jul - 23:54:37 10° SW 23:57:55 65° NW 00:01:10 10° NE night (unlit)
05 Jul - 16:32:51 10° NW 16:36:11 77° SW 16:39:32 10° SE daylight
05 Jul - 18:11:11 10° WSW 18:13:08 14° SSW 18:15:05 10° SSE visible
05 Jul - 21:26:56 10° S 21:28:36 13° SSE 21:30:14 10° SE night (unlit)
05 Jul - 23:02:20 10° SW 23:05:38 61° SE 23:08:54 10° ENE night (unlit)
